{"data":{"norad_id":53396,"epoch":"2026-09-19T21:29:48.604416Z","epoch_age_seconds":127530,"freshness":"FRESH","line1":"1 53396U 22097J   26262.89570144  .00000741  00000+0  32153-4 0  9991","line2":"2 53396  53.1617 325.2607 0001636 111.1476 248.9702 15.35388794227920","mean_motion":15.35388794,"eccentricity":0.0001636,"inclination_deg":53.1617,"raan_deg":325.2607,"arg_perigee_deg":111.1476,"mean_anomaly_deg":248.9702,"bstar":3.2153e-5,"rev_number":22792,"period_min":93.787319904069,"perigee_km":458.64723247413,"apogee_km":460.88459430739,"semimajor_km":6837.9029133908,"source":"CELESTRAK","updated_at":"2026-09-20T09:00:40.224373Z"}}